Regional Weather Roundup
Issued by NWS State College, PA

Home | Current Version | Previous Version | Graphics & Text | Print | Product List | Glossary Off
Versions: 1 2 3 4 5 6 7 8 9 10 11 12 13 14 15 16 17 18 19 20 21 22 23 24 25 26 27 28 29 30 31 32 33 34 35 36 37 38 39 40 41 42 43 44 45 46 47 48 49 50

715
ASUS41 KCTP 240310
RWRCTP

REGIONAL WEATHER ROUNDUP
NATIONAL WEATHER SERVICE STATE COLLEGE PA
1100 PM EDT SAT SEP 23 2017

Note: "fair" indicates few or no clouds below 12,000 feet with no
significant weather and/or obstructions to visibility.

* = STATION THAT DOES NOT REPORT PRECIPITATION /E.G. RAIN...SNOW...ETC/
    THUNDER OR FOG.

PAZ002>004-007>009-013>016-020>023-029>032-240400-
WESTERN PENNSYLVANIA

CITY           SKY/WX    TMP DP  RH WIND       PRES   REMARKS
ERIE           CLEAR     69  63  81 CALM      30.14R
MEADVILLE      CLEAR     70  63  78 CALM      30.17R
FRANKLIN*      CLEAR     66  63  88 N3        30.18S
NEW CASTLE     FAIR      67  62  84 CALM      30.16R
BEAVER COUNTY  NOT AVBL
BUTLER*        CLEAR     64  61  90 CALM      30.16R
PITTSBURGH INT CLEAR     70  59  68 CALM      30.15R
PITTSBURGH     CLEAR     75  54  47 CALM      30.14R
INDIANA*       CLEAR     64  63  94 CALM      30.18S
LATROBE        CLEAR     63  63 100 CALM      30.16R
WASHINGTON CO* CLEAR     59  55  88 CALM      30.15S
$$

PAZ004>006-010>012-017>019-024>028-033>037-041-042-045-046-049>053-240400-
CENTRAL PENNSYLVANIA

CITY           SKY/WX    TMP DP  RH WIND       PRES   REMARKS
BRADFORD       CLEAR     63  62  97 CALM      30.21R
DUBOIS         CLEAR     69  60  73 N5        30.17S
CLEARFIELD     CLEAR     65  61  87 N3        30.17R
JOHNSTOWN      CLEAR     70  53  54 CALM      30.20S
ALTOONA        CLEAR     66  58  75 CALM      30.17R
STATE COLLEGE  MOCLDY    68  62  80 CALM      30.14S
WILLIAMSPORT   CLEAR     67  63  87 CALM      30.11R
SELINSGROVE    CLEAR     60  60 100 CALM      30.11R
FT INDIANTOWN  CLEAR     64  63  96 CALM      30.06F
CAPITAL CITY   CLEAR     66  59  78 SW5       30.09S
HARRISBURG     CLEAR     67  62  84 CALM      30.08S
YORK           CLEAR     60  59  96 CALM      30.10R
$$

PAZ038>040-043-044-047-048-054-055-060>062-067>071-240400-
EASTERN PENNSYLVANIA

CITY           SKY/WX    TMP DP  RH WIND       PRES   REMARKS
SCRANTON       CLEAR     66  61  84 E3        30.12R
MOUNT POCONO   CLEAR     59  59 100 CALM      30.16R
ALLENTOWN      CLEAR     71  61  70 CALM      30.08R
QUAKERTOWN*    CLEAR     64  63  94 CALM      30.09S
READING        CLEAR     68  65  90 CALM      30.07S
LANCASTER      CLEAR     71  62  73 W5        30.09R
COATESVILLE    CLEAR     70  59  68 NW3       30.10S
POTTSTOWN      CLEAR     67  63  87 CALM      30.09S
BLUE BELL      CLEAR     59  59 100 CALM      30.08S
DOYLESTOWN     CLEAR     66  60  81 CALM      30.07R
WILLOW GROVE   NOT AVBL
NORTH PHILA    CLEAR     73  60  63 CALM      30.07S
PHILADELPHIA   CLEAR     73  65  75 CALM      30.05S
$$




USA.gov is the U.S. government's official web portal to all federal, state and local government web resources and services.